{"data":{"norad_id":37258,"intl_designator":"2010-069A","name":"EUTELSAT KA-SAT 9A","alt_names":[],"object_type":"PAYLOAD","status":"ACTIVE","operator":null,"country":"EUTE","launch_date":"2010-12-26","launch_site_code":"TYMSC","launch_vehicle":null,"mission":null,"orbit_class":"UNKNOWN","rcs_meters":15.8489,"size_class":null,"mass_kg":null,"dimensions":null,"purposes":["comms"],"wikipedia_slug":null,"has_3d_model":false,"image_url":null,"decayed_at":null,"tle_current":{"epoch":"2026-05-25T03:47:09.517920Z","epoch_age_seconds":54618,"freshness":"FRESH","line1":"1 37258U 10069A   26145.15774905  .00000059  00000+0  00000+0 0  9999","line2":"2 37258   0.0622  11.3871 0003671 114.1129 183.0249  1.00270746 43779","mean_motion":1.00270746,"eccentricity":0.0003671,"inclination_deg":0.0622,"raan_deg":11.3871,"arg_perigee_deg":114.1129,"mean_anomaly_deg":183.0249,"bstar":0,"rev_number":4377,"period_min":1436.1117847872,"perigee_km":35771.407453094,"apogee_km":35802.365013151,"semimajor_km":42165.023233123,"source":"CELESTRAK","updated_at":"2026-05-25T13:38:13.897978Z"}}}